GEFSCGP_500_meanwind_000.txt.gz
Wind_Speed
36 33 32 34 33 30 26 23 21 17 17 18 17 17 18 18 17 14 14 16 17 18 21 23 25 29 30 30 25 22 21 17 16 18 20 19 21 19 15 20 21 18 17 21
35 33 33 32 33 28 23 22 18 16 18 20 18 18 18 19 17 14 15 16 18 19 21 24 26 28 29 29 27 23 20 19 19 21 22 24 23 21 21 23 23 19 19 22
27 23 22 30 29 24 23 23 21 19 20 22 23 21 19 19 16 14 16 17 18 22 23 24 25 26 27 26 24 22 21 23 24 25 25 25 22 23 24 23 25 23 21 24
20 23 23 23 24 24 22 23 24 22 24 23 24 20 20 22 19 16 14 13 14 19 23 26 26 24 24 23 22 22 24 26 26 25 23 20 19 22 23 23 21 24 24 26
14 15 20 22 20 25 23 25 26 25 26 24 23 23 21 24 21 17 14 13 15 19 22 25 28 28 24 23 24 26 28 28 26 23 21 19 20 21 21 20 20 22 23 22
15 13 16 17 17 23 22 22 22 22 22 23 21 23 21 23 21 19 15 16 19 22 24 24 26 28 27 26 26 27 26 25 24 24 22 21 22 22 20 22 25 24 23 22
14 13 13 19 21 23 23 21 20 20 21 19 22 23 20 22 22 21 20 21 21 24 26 25 26 28 29 28 27 23 21 20 20 20 20 20 21 20 18 21 25 26 26 27
15 16 16 16 20 22 21 21 20 21 23 23 26 24 22 23 24 25 24 22 24 27 29 28 28 27 27 27 22 19 19 19 18 17 18 18 19 18 15 16 20 21 20 20
20 21 21 21 20 21 21 20 23 25 26 27 26 25 25 26 25 25 23 24 27 29 31 30 30 30 23 20 17 16 17 17 15 15 14 15 16 17 17 15 17 20 18 17
23 24 26 25 25 26 24 23 23 25 25 26 25 24 24 27 26 25 26 27 27 28 26 27 27 28 21 17 15 15 16 16 15 15 14 15 16 15 17 19 19 20 21 22
23 25 26 27 24 21 22 22 22 25 27 28 26 22 24 26 25 25 23 25 26 25 23 23 22 20 17 16 15 15 15 15 14 15 18 18 18 17 14 17 20 22 24 25
28 28 24 26 29 25 27 24 24 27 29 29 28 25 24 26 27 25 24 25 24 23 22 25 22 19 18 16 15 15 16 15 16 17 18 19 20 19 18 16 19 21 21 24
22 21 18 20 25 29 30 28 27 27 29 28 28 28 27 28 27 25 25 24 25 25 24 27 25 24 22 20 17 17 19 19 21 21 20 20 20 20 19 16 17 20 19 17
28 26 23 23 25 28 31 31 31 31 31 31 30 30 30 27 22 23 24 24 26 27 27 28 27 25 23 22 21 21 24 26 27 27 25 23 22 20 17 15 17 19 22 21
30 31 30 29 29 30 33 33 32 33 33 33 29 26 21 21 19 23 26 29 31 27 23 19 21 21 22 23 24 26 28 30 31 30 28 26 25 23 21 21 20 19 21 25
28 30 29 25 29 33 31 30 34 35 35 34 32 28 23 24 23 22 26 30 30 27 23 19 20 18 20 23 26 28 30 30 29 28 29 27 26 25 24 25 26 24 23 23
23 25 24 18 21 29 29 27 33 36 35 37 38 32 29 33 32 28 30 29 25 25 22 18 16 16 19 22 25 27 29 29 27 25 28 30 29 28 26 25 26 28 26 24
25 25 26 27 28 28 26 30 34 37 37 40 40 34 33 34 30 27 24 22 19 16 16 17 19 21 24 27 28 28 25 23 24 25 28 30 30 28 26 27 29 30 30 27
26 26 26 24 24 26 27 26 22 21 22 20 18 16 16 16 15 13 13 13 12 14 18 22 24 26 29 30 28 24 22 22 23 23 23 25 26 26 25 28 31 31 29 26
21 19 20 22 25 20 11 7 4 5 1 3 2 4 4 4 8 10 10 13 16 19 21 22 24 26 27 26 24 24 23 23 23 22 22 23 24 25 27 31 34 32 29 26
21 19 17 18 13 8 9 8 13 12 7 7 7 5 1 4 7 9 13 18 19 19 20 20 22 23 23 24 23 23 23 23 23 24 25 26 26 26 27 31 33 32 26 21
23 21 19 13 9 13 12 14 13 11 7 4 2 3 4 5 7 10 15 19 19 19 18 18 19 20 21 22 23 22 23 23 24 25 26 26 27 27 27 29 29 28 27 21
27 23 21 15 14 18 18 13 10 8 5 2 3 4 5 6 8 12 16 18 20 18 16 17 18 19 21 22 23 23 23 22 22 22 24 25 27 29 30 31 31 28 27 22
29 27 24 16 22 27 22 16 10 4 2 4 5 6 6 6 9 13 15 18 18 16 15 16 18 20 22 23 24 23 20 19 20 21 21 23 24 25 28 33 30 26 22 19
31 28 23 20 25 25 22 18 12 7 4 2 6 9 9 10 11 13 15 16 16 14 14 15 16 19 21 24 23 20 17 15 17 16 17 16 15 16 20 23 22 17 18 19
26 28 26 26 27 26 22 17 14 9 5 3 7 9 9 11 12 13 14 14 13 11 11 12 14 17 20 21 18 17 14 14 15 15 14 12 11 12 11 5 10 15 17 17

GEFSCGP_500_meanwind_006.txt.gz
Wind_Speed
32 30 30 31 32 33 35 34 32 31 31 27 21 19 16 17 19 19 19 22 23 23 23 22 22 21 20 20 20 20 22 23 22 20 19 17 17 19 19 18 15 13 14 15
30 29 29 30 31 31 32 32 31 28 27 25 20 19 17 17 20 23 22 24 25 24 23 24 25 23 23 22 21 21 22 22 20 19 18 19 20 20 19 20 20 20 20 20
32 29 30 30 30 30 30 30 30 29 27 26 24 23 21 20 23 25 24 25 25 24 24 26 27 26 25 24 22 22 22 21 20 19 19 20 21 21 20 21 23 24 25 25
27 27 26 23 22 23 23 24 25 26 26 25 26 25 22 23 25 24 22 24 25 25 26 28 30 26 25 24 23 22 22 22 22 21 22 23 24 22 21 21 22 23 24 26
21 20 20 18 18 20 22 22 22 22 24 23 24 26 24 25 26 23 22 24 26 27 28 30 29 25 24 24 23 22 21 21 21 22 23 24 23 21 22 22 23 24 24 25
22 22 19 17 18 21 23 24 25 26 26 26 23 26 26 24 24 24 24 25 26 27 29 29 28 26 25 24 23 23 22 21 21 22 21 20 19 19 21 23 24 24 24 22
23 23 22 21 21 23 24 25 24 24 23 23 22 24 25 23 24 24 24 25 26 27 29 30 27 26 27 26 25 24 24 22 20 19 18 16 15 15 17 20 22 22 21 20
26 26 26 25 26 27 26 25 24 23 22 22 22 25 25 23 23 24 25 25 26 28 28 27 24 24 25 26 25 24 24 22 20 18 16 14 13 13 14 16 18 18 18 17
27 28 28 29 29 29 28 28 26 26 26 26 25 25 27 26 25 26 28 28 28 29 28 25 23 23 23 24 23 22 21 20 19 17 15 14 13 13 15 16 16 16 15 14
26 29 29 30 30 28 28 27 27 29 30 30 29 27 28 27 26 28 29 29 28 28 27 25 22 23 24 25 24 21 19 18 17 15 14 13 13 14 15 17 16 15 14 15
24 26 26 30 32 31 29 29 28 29 30 31 31 29 28 27 27 28 29 28 28 27 26 25 24 25 25 25 24 22 19 17 16 15 15 14 15 15 15 16 16 16 15 15
23 24 24 26 33 35 34 33 31 31 32 32 32 29 24 25 26 29 29 29 28 27 25 25 26 26 26 25 23 20 18 17 17 16 17 17 18 19 19 18 17 17 17 16
29 28 28 28 31 32 35 36 35 34 34 33 31 29 27 27 25 25 26 27 27 26 25 24 25 27 28 26 22 19 17 17 17 18 19 20 21 22 21 20 19 19 18 16
28 28 26 24 28 31 30 34 35 36 37 38 37 34 30 28 26 25 27 28 27 25 24 24 25 28 29 26 22 19 17 16 17 18 20 22 22 23 23 22 21 20 19 17
25 27 26 22 21 24 23 24 28 33 37 40 37 35 28 25 27 29 29 27 25 23 23 24 26 29 28 25 22 19 17 18 19 20 21 22 22 22 22 23 22 21 21 20
24 24 24 22 21 22 21 19 23 27 30 33 32 26 23 27 30 31 29 26 24 24 24 25 28 29 25 22 20 19 20 22 23 24 24 23 22 22 22 23 22 22 22 22
23 22 21 19 18 16 14 15 16 18 19 24 26 22 23 26 28 28 27 27 27 27 28 28 27 23 20 20 21 22 24 26 27 27 27 25 24 23 23 24 24 24 24 25
24 24 22 18 17 15 16 16 16 18 21 23 24 23 22 23 23 24 25 26 27 27 25 22 19 18 20 22 23 25 26 27 27 27 27 26 25 24 25 25 25 25 25 25
22 22 21 17 13 13 15 15 16 16 13 11 11 11 11 12 14 16 18 18 18 17 16 15 16 19 21 22 23 24 25 26 26 26 27 27 27 26 26 26 27 26 25 25
20 17 16 14 11 9 12 12 11 8 7 6 5 6 7 7 7 8 8 9 9 9 10 13 16 19 21 21 21 22 23 25 26 27 28 28 28 27 26 27 28 29 28 27
21 17 15 14 12 11 11 11 12 13 11 11 10 10 10 10 8 7 6 6 6 7 10 14 16 17 18 19 20 22 24 26 27 27 27 28 28 28 28 29 30 31 30 29
22 19 16 16 15 16 17 17 18 16 15 13 12 11 10 9 8 6 4 4 6 10 13 14 15 16 17 18 20 22 24 25 25 25 24 24 25 27 28 30 30 31 30 30
22 22 17 20 22 23 23 22 20 19 17 14 12 10 8 7 6 3 2 6 9 12 14 14 14 15 16 18 20 22 21 21 21 20 19 19 20 23 25 26 28 29 29 30
28 29 22 20 27 27 25 23 22 20 17 14 11 8 7 6 4 1 3 7 11 13 13 13 13 14 15 18 20 20 19 19 18 17 16 16 16 17 18 20 23 25 26 27
33 34 27 23 24 26 25 24 24 21 17 14 10 8 7 6 4 3 4 7 11 12 12 12 12 13 16 19 20 19 18 17 16 15 14 13 13 14 15 17 17 17 18 19
32 34 30 26 26 25 25 26 26 24 19 15 12 9 8 7 5 5 6 8 10 11 11 11 12 13 16 18 20 19 18 16 14 13 12 12 12 12 14 14 12 7 4 8

GEFSCGP_500_meanwind_012.txt.gz
Wind_Speed
36 36 36 37 38 39 38 36 34 32 32 30 29 28 26 26 24 22 21 20 22 23 23 22 21 21 21 21 22 23 24 25 26 24 22 21 22 22 21 21 21 20 19 18
38 38 39 39 38 36 36 35 34 33 32 30 29 29 28 27 25 24 22 21 23 25 26 24 23 22 22 23 24 24 24 25 25 25 24 24 24 25 25 24 23 22 22 21
34 36 39 39 37 35 33 32 33 33 32 31 29 29 28 27 26 26 25 23 24 26 26 26 25 23 23 24 26 26 25 26 26 27 27 27 27 27 28 28 27 25 25 24
27 29 30 32 33 33 32 33 33 34 33 33 31 30 28 27 27 28 27 26 25 26 26 26 26 25 25 25 26 26 27 27 28 28 29 29 29 29 30 29 29 29 28 26
24 25 25 26 28 29 30 30 31 31 32 31 28 28 26 26 27 28 28 27 26 25 25 25 25 26 26 27 28 27 28 29 29 29 29 30 31 31 31 30 30 31 29 28
23 24 25 26 27 27 28 29 29 29 30 30 26 26 25 23 25 26 27 26 25 23 23 23 23 25 26 28 28 28 28 28 27 28 29 30 30 30 29 29 29 29 28 27
24 26 27 28 29 29 28 28 28 27 27 28 28 27 27 26 25 24 24 23 22 21 21 22 23 24 26 27 27 27 26 26 27 27 27 26 26 26 26 25 25 24 23 23
22 25 27 28 29 29 29 28 27 27 27 27 26 26 25 25 24 22 20 20 19 20 20 21 23 25 27 27 27 26 25 25 25 25 24 23 23 22 22 21 19 18 18 19
23 23 24 26 27 28 29 29 29 28 28 29 28 26 24 22 21 19 18 18 19 20 21 22 24 25 26 26 26 26 25 24 24 24 23 22 21 19 18 16 15 15 15 16
25 24 22 23 23 25 26 28 28 27 28 29 31 29 24 21 21 20 20 19 20 21 22 22 23 24 24 24 25 25 24 24 24 24 23 22 21 19 17 15 14 14 14 15
25 25 23 23 23 23 24 25 26 26 27 27 28 27 24 18 17 18 19 20 20 20 21 22 23 23 23 23 24 23 22 23 24 23 23 22 21 20 18 16 15 14 14 14
26 26 25 24 23 23 24 25 26 27 28 27 27 26 24 19 19 20 22 23 23 22 22 22 22 22 23 23 23 22 22 24 25 24 22 22 22 22 21 20 18 17 16 16
26 25 24 23 25 26 26 25 25 27 29 30 30 28 28 24 25 26 27 28 27 25 24 23 23 23 24 23 22 22 24 26 25 23 21 21 22 23 23 23 22 20 19 18
26 25 25 24 24 25 26 27 27 28 29 31 31 31 32 31 32 32 31 31 29 28 27 26 25 24 23 21 21 22 25 25 23 21 20 21 21 22 23 23 23 23 22 21
25 25 27 26 24 23 22 24 26 27 28 31 31 31 30 31 34 34 34 34 32 29 28 26 26 25 22 21 21 23 25 23 21 21 21 21 22 22 23 23 23 23 23 22
25 24 26 25 24 20 18 20 21 23 24 27 27 27 27 28 30 31 32 32 31 29 27 27 25 24 22 22 23 24 23 21 21 21 23 23 23 23 23 22 22 23 23 23
23 21 22 21 20 17 16 16 18 20 19 19 19 20 22 24 25 26 26 28 28 27 26 25 24 23 23 23 23 22 21 21 21 22 23 23 23 23 23 22 22 23 23 24
18 15 16 15 16 15 14 14 15 15 15 15 17 19 20 20 19 19 20 21 22 22 22 21 21 21 20 20 20 21 21 22 22 22 23 23 23 24 24 24 24 24 24 24
16 10 9 11 14 13 13 14 14 13 13 14 14 15 15 12 10 10 11 13 14 15 16 16 16 16 17 18 19 21 22 22 22 23 23 24 25 26 26 26 26 26 25 25
13 8 8 10 12 13 16 15 14 13 13 13 12 9 7 5 5 5 6 7 8 9 10 11 12 13 16 18 19 20 20 21 22 24 25 25 25 25 25 25 25 25 26 26
13 10 12 14 14 14 17 17 15 16 16 15 13 10 7 5 4 4 4 4 5 6 8 9 11 14 15 16 17 18 19 20 22 23 23 23 22 22 21 22 22 23 24 26
14 12 14 15 16 16 17 20 20 19 19 18 14 10 7 5 4 3 3 4 5 7 9 11 12 13 13 13 14 15 18 20 21 21 20 19 19 18 18 18 19 20 22 25
15 11 15 17 17 14 16 21 21 21 22 20 15 10 6 5 4 4 3 4 6 8 10 12 12 11 10 11 12 15 18 19 19 18 17 16 15 15 15 15 16 18 21 23
17 11 12 17 19 15 13 19 21 21 22 18 12 8 6 5 5 3 3 5 7 9 11 11 11 9 9 10 13 16 18 18 17 16 14 13 13 13 14 15 16 17 19 21
20 12 9 14 17 16 13 18 21 21 19 15 10 8 7 6 4 3 4 6 9 11 11 11 10 9 9 11 13 15 16 16 15 13 12 12 12 13 14 14 15 16 17 16
22 13 8 12 17 17 14 18 21 21 19 14 11 9 7 5 3 3 4 6 8 11 11 11 10 9 10 11 13 14 14 14 13 12 12 11 11 12 13 14 14 15 14 13

GEFSCGP_500_meanwind_018.txt.gz
Wind_Speed
30 32 33 35 37 38 39 39 38 38 37 37 35 34 33 32 32 32 30 28 28 28 27 26 24 21 20 19 20 21 21 21 21 21 20 20 21 20 20 21 22 23 23 22
29 32 35 36 36 37 39 41 40 40 40 41 41 40 36 34 34 33 31 30 29 28 28 29 26 23 22 21 20 21 21 22 22 22 21 21 21 22 22 22 23 24 25 24
25 29 32 33 34 36 38 40 40 39 39 41 42 41 36 32 31 31 31 30 29 29 30 31 28 24 23 21 21 21 21 21 22 22 21 22 22 23 23 24 25 26 27 26
25 28 30 31 32 35 36 37 38 37 39 39 39 39 33 29 29 30 31 31 30 29 30 32 29 25 23 22 22 21 21 20 20 20 21 22 23 23 24 26 27 28 28 28
22 27 30 30 32 33 34 34 34 34 35 34 33 36 31 29 28 25 26 29 30 29 30 32 29 25 24 23 22 20 19 19 19 19 20 22 24 25 26 27 28 29 29 28
17 22 26 28 29 32 33 33 32 32 33 32 29 32 30 28 26 24 24 26 28 28 29 31 27 25 24 22 20 19 19 20 20 21 22 23 25 27 27 28 28 28 27 26
16 19 24 28 28 28 30 30 30 29 28 28 27 27 25 23 23 23 22 22 24 25 26 27 24 23 22 20 19 19 19 20 21 22 23 25 26 26 27 27 26 26 25 24
19 18 23 29 27 25 26 25 26 27 26 24 20 19 18 18 20 20 20 21 19 19 20 20 19 19 18 17 18 19 20 21 22 23 25 26 26 26 25 25 24 23 21 21
24 22 24 28 28 27 25 23 23 25 27 27 22 18 17 15 16 18 20 20 19 16 16 15 15 15 16 17 18 19 20 21 22 24 24 25 24 24 23 22 21 20 19 18
28 29 27 29 29 27 25 22 21 24 25 24 22 21 22 18 15 13 14 16 16 16 17 16 16 16 16 17 19 20 21 21 22 22 22 23 23 22 21 20 19 19 18 17
34 36 33 29 25 25 24 24 24 26 24 21 20 21 22 20 17 16 17 16 16 17 17 18 17 15 15 16 18 20 21 21 22 22 22 22 22 21 20 19 18 18 18 18
39 39 37 28 22 25 26 25 23 23 24 24 22 21 20 22 17 13 13 15 16 17 18 18 16 15 16 17 18 19 21 22 23 22 22 22 22 21 20 19 18 18 18 19
43 40 35 24 20 25 27 27 26 26 24 21 20 21 24 25 24 17 13 13 14 16 17 18 19 18 19 20 20 21 21 22 22 23 23 23 22 21 20 19 18 19 19 19
42 35 28 22 18 20 21 21 22 25 26 24 23 23 24 25 24 22 19 15 15 18 20 21 21 20 21 22 22 22 22 23 23 24 24 24 23 22 21 20 19 20 20 20
37 29 22 18 15 14 14 10 11 16 20 20 21 23 22 24 24 23 22 20 20 22 23 24 24 23 22 22 22 22 23 24 24 24 25 24 23 22 22 21 22 22 22 21
32 23 16 11 8 8 9 10 10 13 16 17 18 18 18 20 20 19 20 21 22 22 23 23 23 22 21 21 21 21 23 23 24 24 24 23 24 24 23 23 23 23 23 23
31 20 13 5 4 7 8 8 8 9 10 11 12 12 11 11 12 13 14 15 16 17 17 17 18 18 18 18 19 20 20 21 22 23 23 23 24 24 24 24 24 24 24 25
29 18 9 1 5 5 7 7 6 8 6 6 5 4 4 5 6 6 6 7 8 8 9 10 11 13 14 15 16 18 18 19 21 22 22 22 23 24 25 25 25 25 25 25
27 16 7 0 3 3 5 9 8 7 7 5 3 3 3 2 2 3 1 1 1 2 3 4 6 8 9 12 14 16 17 18 19 20 21 23 24 25 26 26 25 25 25 25
25 16 6 2 3 5 4 7 7 7 7 6 4 4 3 2 1 3 4 4 4 3 2 1 4 6 9 11 14 16 17 18 19 20 22 23 25 25 25 24 23 23 23 23
26 16 7 2 3 4 4 4 5 7 7 6 4 3 3 1 2 4 5 5 5 4 3 4 6 8 11 13 15 16 16 17 19 21 22 23 23 23 22 21 21 20 20 21
28 17 8 3 3 3 3 4 6 6 5 5 5 3 2 3 3 4 4 4 4 4 5 7 9 11 13 14 14 15 16 17 19 21 22 22 22 21 20 19 18 18 19 20
29 18 9 4 3 2 3 4 6 7 7 6 5 1 3 4 3 3 4 4 4 6 7 9 11 12 12 13 14 15 16 18 19 20 21 21 20 19 17 17 17 17 18 20
31 19 10 5 4 3 4 4 5 7 7 6 4 2 4 4 3 3 3 4 6 7 10 11 12 12 12 13 14 15 17 18 19 19 19 19 18 17 17 16 16 16 17 19
35 22 12 5 4 4 4 4 5 7 7 5 4 4 5 4 3 3 4 5 7 9 11 12 12 12 12 13 14 15 16 17 18 19 19 19 18 17 16 14 14 15 16 17
37 27 16 7 3 4 4 4 5 8 7 5 4 4 4 3 2 3 5 7 8 10 12 12 12 12 13 14 14 15 17 18 19 20 19 18 16 15 13 13 13 14 14 15

GEFSCGP_500_meanwind_024.txt.gz
Wind_Speed
23 25 27 29 31 33 34 35 36 37 38 40 39 39 38 38 37 35 34 34 31 31 30 28 26 24 22 20 18 18 18 18 19 19 19 19 19 19 18 18 17 16 15 15
21 23 25 28 31 33 35 37 38 39 40 42 42 40 38 38 38 35 35 35 33 32 30 29 27 26 24 22 22 22 21 21 20 21 21 20 20 19 19 18 18 17 17 17
17 21 24 26 29 31 34 37 39 40 41 43 44 42 38 37 37 36 34 33 31 30 30 29 28 27 25 23 23 24 25 24 23 23 22 21 20 18 18 18 18 18 19 19
14 18 22 25 28 31 33 35 38 40 41 41 41 42 36 36 35 35 33 31 30 29 29 29 29 27 26 26 25 26 27 26 25 24 22 21 19 17 17 17 18 20 21 22
11 15 19 21 24 28 31 32 34 36 37 38 36 38 34 34 34 33 32 30 29 27 28 29 29 29 28 27 28 28 28 26 25 24 22 21 19 18 18 19 20 22 23 24
12 17 21 23 26 29 31 32 33 33 33 32 30 31 30 30 31 30 31 30 28 28 29 30 31 31 30 29 30 30 26 24 23 23 21 20 20 20 20 22 23 24 24 25
16 21 26 28 30 32 34 35 36 34 30 28 25 26 26 26 26 27 27 28 27 29 30 31 31 30 29 30 31 29 24 22 21 20 19 19 20 21 22 23 24 24 25 25
21 24 29 32 35 37 37 36 36 35 32 26 24 24 24 22 22 23 23 24 26 27 29 29 29 29 30 31 30 26 21 18 18 17 17 18 20 22 23 23 24 24 24 23
30 31 33 37 40 41 40 38 36 36 33 28 24 23 24 23 20 21 21 21 22 24 25 27 28 27 28 28 23 18 17 16 15 16 18 20 21 22 23 23 23 23 23 23
37 40 41 43 43 42 42 38 35 34 32 28 24 23 23 22 20 19 20 20 20 22 25 26 25 26 26 23 19 16 14 13 14 17 19 21 22 23 22 22 22 21 21 21
43 45 45 43 40 36 33 32 32 31 29 27 24 22 20 18 16 16 17 20 21 22 24 26 25 25 23 18 15 14 13 14 16 19 20 22 22 21 21 21 20 19 20 20
44 44 38 32 27 24 21 22 25 27 28 25 23 20 14 14 14 14 14 17 19 21 22 22 21 16 14 10 9 11 13 15 18 20 21 22 21 20 20 20 20 19 19 20
42 35 27 21 18 15 13 14 17 20 22 22 19 16 14 10 8 8 8 9 11 9 8 8 7 6 6 7 9 11 14 17 19 21 22 22 20 20 19 20 20 20 20 20
35 29 23 20 15 9 5 5 8 10 13 14 11 7 6 5 6 6 6 5 6 6 4 2 2 4 7 10 12 14 16 19 20 22 23 22 20 18 18 19 19 19 19 20
31 25 20 17 13 9 7 3 3 5 9 9 7 5 4 4 5 6 5 6 6 7 8 7 7 8 10 12 14 15 17 19 20 21 22 20 18 17 18 19 20 20 19 19
29 23 19 15 12 10 9 8 7 8 9 7 5 3 2 2 3 4 4 5 6 7 9 10 11 11 12 13 15 16 17 18 20 20 21 20 18 17 18 19 20 20 20 20
26 23 20 16 12 11 11 11 11 10 9 6 4 2 1 0 2 2 2 2 4 5 7 8 9 9 10 11 13 15 15 17 18 19 18 18 18 18 19 19 20 21 22 22
25 20 18 16 14 13 13 12 11 10 9 9 7 6 5 4 4 3 1 0 1 2 2 3 4 5 6 8 10 11 12 14 16 17 17 18 19 19 19 20 22 22 23 23
23 18 15 15 14 12 11 11 10 11 10 10 9 7 6 6 5 4 4 3 2 4 3 2 1 1 3 6 8 10 12 14 16 17 18 19 19 20 20 21 22 22 22 22
22 16 14 13 12 12 11 10 10 10 9 9 8 8 7 7 6 6 6 6 5 5 5 4 2 2 4 7 9 11 13 15 16 17 18 18 19 20 21 21 21 21 21 20
23 17 12 11 10 10 10 9 9 9 9 8 8 8 7 8 7 8 8 7 6 6 5 4 4 6 7 9 11 12 14 16 17 18 18 19 21 21 21 21 21 20 19 18
24 18 12 10 8 8 8 8 9 10 9 8 8 8 8 8 9 8 8 7 6 5 5 6 7 8 10 11 12 14 15 16 17 18 19 20 20 20 20 20 19 18 18 17
26 18 12 10 8 7 7 8 8 8 8 8 8 8 9 9 8 8 8 7 6 7 8 9 10 11 11 12 13 14 15 16 17 18 19 19 19 19 18 18 17 17 17 17
28 20 12 9 8 6 6 7 7 8 7 7 7 8 8 7 7 7 7 7 7 8 10 11 11 12 12 13 14 15 16 17 17 18 18 17 17 16 16 15 15 15 16 16
30 24 15 9 7 6 6 6 6 7 7 8 8 9 8 8 7 6 6 7 8 9 10 11 12 13 14 14 15 15 16 16 16 16 15 15 15 14 14 13 14 14 14 14
31 25 18 10 6 5 5 5 7 8 8 7 8 8 8 8 7 6 6 7 8 10 11 12 13 14 14 15 16 16 16 15 15 15 14 14 14 13 13 13 13 13 13 13

GEFSCGP_500_meanwind_030.txt.gz
Wind_Speed
23 25 27 29 31 33 34 36 36 37 39 39 39 38 38 40 41 40 40 40 38 35 33 32 30 29 27 25 23 21 22 22 21 21 21 20 19 18 18 18 18 18 18 19
21 24 26 29 31 33 34 36 37 38 40 41 40 40 40 42 43 43 42 41 40 38 35 34 32 31 29 27 24 23 24 24 24 23 23 22 21 21 20 20 19 19 19 19
19 22 25 27 30 32 34 36 37 38 39 40 41 39 40 41 42 43 43 42 41 39 37 35 32 31 30 28 26 25 25 26 27 26 26 24 24 23 22 21 20 20 20 21
18 21 24 26 29 31 33 35 37 38 38 38 38 38 36 37 39 41 41 41 41 40 38 36 33 32 31 29 28 28 27 29 30 30 28 27 26 24 23 22 21 22 22 22
19 22 25 28 30 33 35 35 37 37 38 38 36 37 35 34 35 36 38 39 40 39 38 36 35 33 32 31 31 31 30 32 34 34 31 29 27 24 23 22 22 23 23 24
24 28 31 33 36 38 40 41 42 42 41 41 37 37 36 33 33 33 34 35 36 36 36 36 36 35 35 34 34 34 34 36 36 36 35 31 27 24 22 21 22 23 24 25
29 33 37 40 42 44 45 46 46 46 45 43 38 37 36 33 32 31 31 31 32 32 34 34 35 36 37 37 37 38 37 38 39 37 33 29 26 23 21 20 20 22 23 24
34 37 41 43 44 45 44 44 44 44 42 40 36 33 32 30 29 28 28 29 29 31 32 34 34 36 38 38 39 39 37 38 39 37 30 25 21 20 18 19 20 22 23 24
38 40 42 41 41 40 39 38 38 39 38 36 33 31 30 27 25 24 25 26 26 27 30 32 33 35 37 38 38 38 38 38 36 31 26 22 19 18 18 19 20 22 24 25
38 38 37 36 34 34 32 30 27 27 28 28 27 25 23 21 21 21 21 22 23 23 25 28 31 32 34 33 35 35 34 33 29 24 19 17 16 16 17 19 21 23 25 26
35 35 33 30 29 28 25 21 19 17 16 17 17 16 15 16 16 16 17 17 18 19 20 22 24 25 27 25 24 23 23 22 20 15 13 14 15 17 18 20 23 24 25 26
33 31 29 27 26 24 20 16 11 6 5 7 9 10 10 10 9 9 9 9 11 12 15 16 17 16 17 15 13 12 14 13 12 11 12 13 16 18 20 22 24 24 24 24
31 29 27 24 23 21 18 13 8 5 3 3 2 2 3 3 3 2 2 2 3 3 5 6 6 6 6 6 6 7 7 8 9 10 12 15 17 19 21 22 23 23 23 23
28 27 27 25 23 20 18 15 12 10 9 8 7 5 4 4 3 2 3 4 4 4 5 5 5 5 5 6 6 5 6 8 10 12 14 17 19 20 20 21 22 22 22 22
26 26 25 23 21 20 18 16 14 12 11 11 10 8 7 7 6 6 6 6 6 6 6 7 7 7 6 6 6 7 8 10 12 14 16 18 19 19 18 19 19 20 21 21
24 23 23 21 19 18 17 17 16 15 13 12 11 10 9 9 8 7 7 8 8 7 7 6 5 4 3 4 6 8 10 12 14 15 16 17 16 17 17 17 17 18 19 20
22 21 20 19 17 15 14 14 14 13 13 12 12 12 10 10 10 9 9 9 9 8 6 5 3 1 1 3 5 7 9 11 12 13 14 14 14 14 15 16 17 19 20 20
21 19 19 17 15 14 14 13 13 12 12 12 12 12 11 11 11 10 10 10 10 10 9 7 6 4 3 3 4 5 7 8 10 12 13 15 15 16 17 18 19 20 21 22
22 17 16 16 14 12 12 12 12 12 12 11 11 11 11 11 12 12 12 12 13 12 11 9 8 6 5 4 5 6 7 9 11 13 14 15 17 17 18 19 20 21 22 23
23 17 15 14 12 11 10 9 9 9 10 10 10 10 11 12 12 12 12 13 13 13 11 10 8 7 6 6 7 8 9 11 12 13 15 16 17 18 19 20 21 21 22 22
23 18 14 13 11 10 9 8 8 8 7 8 9 10 11 12 12 13 13 13 12 12 11 10 9 8 8 9 9 10 11 12 13 15 16 16 17 18 19 19 19 20 20 19
23 18 15 12 10 9 7 7 7 7 7 8 8 10 11 11 11 11 11 11 11 11 10 10 10 10 11 11 12 12 13 14 15 16 16 17 17 18 18 18 17 17 17 16
24 18 16 13 10 8 7 7 6 6 6 7 8 9 9 9 9 9 10 10 11 11 12 12 12 12 13 14 14 15 15 16 16 17 17 17 18 17 17 17 16 16 15 14
24 18 16 14 10 8 7 7 6 6 5 5 6 6 7 7 7 8 9 10 11 12 13 13 13 14 15 16 17 17 17 18 18 18 18 18 17 17 17 17 16 15 14 13
24 19 16 13 10 8 7 7 6 6 5 5 5 5 5 5 5 7 8 10 11 12 13 14 14 15 16 16 17 17 18 18 17 17 18 18 18 17 18 17 16 15 14 13
23 20 16 12 9 7 7 7 6 6 5 4 4 4 4 4 5 6 8 9 11 13 14 14 15 16 16 16 16 17 17 17 17 17 18 18 18 18 18 18 17 16 15 13